DW5467 Weather Reports


time (UTC)temp
F
wind
direction
speed
knots
gust
knots
rain 1hr
in
rain 24hr
in
rain mn
in
humidity
%
barometer
mb
20260505094029 66 258 0.0 2.6 0.00 0.00 0.00 82 1008.2
20260505093030 66 244 0.9 1.7 0.00 0.00 0.00 82 1008.4
20260505092530 66 240 0.9 2.6 0.00 0.00 0.00 81 1008.5
20260505092029 66 301 0.0 1.7 0.00 0.00 0.00 81 1008.6
20260505091029 66 298 0.9 2.6 0.00 0.00 0.00 81 1008.7
20260505090029 66 38 0.0 1.7 0.00 0.00 0.00 81 1008.8
20260505085530 66 334 0.0 0.0 0.00 0.00 0.00 81 1008.7
20260505085029 66 311 0.0 2.6 0.00 0.00 0.00 81 1008.8
20260505084530 66 308 0.0 0.9 0.00 0.00 0.00 80 1008.8
20260505083530 67 333 0.9 1.7 0.00 0.00 0.00 80 1008.8
20260505082529 67 290 0.9 2.6 0.00 0.00 0.00 80 1008.8
20260505082029 67 43 0.9 2.6 0.00 0.00 0.00 80 1008.9
20260505081529 67 321 0.0 1.7 0.00 0.00 0.00 80 1008.9
20260505080529 67 323 0.0 2.6 0.00 0.00 0.00 80 1008.8
20260505080029 67 290 0.9 5.2 0.00 0.00 0.00 80 1008.8
20260505075530 67 308 0.9 2.6 0.00 0.00 0.00 80 1009.0
20260505075029 67 294 0.9 2.6 0.00 0.00 0.00 80 1009.1
20260505074529 67 320 0.0 2.6 0.00 0.00 0.00 79 1009.2
20260505073529 67 300 0.9 2.6 0.00 0.00 0.00 79 1009.1
20260505073030 67 250 0.0 1.7 0.00 0.00 0.00 79 1009.1
20260505072530 67 224 0.9 4.3 0.00 0.00 0.00 79 1009.1
20260505072029 67 262 0.9 2.6 0.00 0.00 0.00 79 1009.1
20260505071029 67 32 0.9 4.3 0.00 0.00 0.00 79 1009.2
20260505070529 67 331 0.9 2.6 0.00 0.00 0.00 79 1009.3
20260505070029 67 306 0.9 2.6 0.00 0.00 0.00 78 1009.4
20260505065529 67 251 0.9 2.6 0.00 0.00 0.00 78 1009.5
20260505064529 67 326 0.9 2.6 0.00 0.00 0.00 78 1009.5
20260505064029 67 324 0.0 2.6 0.00 0.00 0.00 78 1009.5
20260505063529 67 294 0.0 2.6 0.00 0.00 0.00 78 1009.6
20260505062529 67 327 0.0 2.6 0.00 0.00 0.00 78 1009.6
20260505062030 67 273 0.9 2.6 0.00 0.00 0.00 78 1009.8
20260505060529 67 216 0.9 2.6 0.00 0.00 0.00 78 1009.9
20260505060029 67 258 0.0 4.3 0.00 0.00 0.00 78 1010.0
20260505055529 67 259 0.9 2.6 0.00 0.00 0.00 78 1010.0
20260505054029 67 274 0.9 2.6 0.00 0.00 0.00 77 1009.9
20260505053529 67 222 0.9 4.3 0.00 0.00 0.00 77 1009.9
20260505053029 67 322 0.0 1.7 0.00 0.00 0.00 77 1009.9
20260505052029 68 283 0.9 2.6 0.00 0.00 0.00 77 1010.1
20260505051029 68 28 0.9 1.7 0.00 0.00 0.00 76 1010.1
20260505050529 68 30 0.0 1.7 0.00 0.00 0.00 76 1010.1
20260505041529 68 309 0.0 1.7 0.00 0.00 0.00 76 1010.3
20260505041029 68 313 0.9 1.7 0.00 0.00 0.00 76 1010.3
20260505040530 68 311 0.0 1.7 0.00 0.00 0.00 76 1010.3
20260505040029 68 309 0.0 1.7 0.00 0.00 0.00 76 1010.3
20260505035529 68 306 0.9 1.7 0.00 0.00 0.00 76 1010.2
20260505035029 68 306 0.0 4.3 0.00 0.00 0.00 75 1010.2
20260505034530 68 320 0.9 4.3 0.00 0.00 0.00 75 1010.2
20260505033529 68 302 0.0 2.6 0.00 0.00 0.00 76 1010.3
20260505032529 68 319 0.9 1.7 0.00 0.00 0.00 74 1010.4
20260505032030 68 319 0.9 1.7 0.00 0.00 0.00 74 1010.2
20260505031529 68 319 0.0 1.7 0.00 0.00 0.00 74 1010.2
20260505031029 68 319 0.0 2.6 0.00 0.00 0.00 74 1010.1
20260505030529 68 272 0.9 2.6 0.00 0.00 0.00 73 1010.1
20260505030030 69 298 0.0 0.0 0.00 0.00 0.00 73 1010.1
20260505025529 69 298 0.0 0.0 0.00 0.00 0.00 73 1010.1
20260505025030 69 279 0.0 0.0 0.00 0.00 0.00 73 1010.1
20260505024529 69 279 0.0 0.0 0.00 0.00 0.00 72 1010.0
20260505024029 69 279 0.0 0.0 0.00 0.00 0.00 71 1010.0
20260505023529 69 279 0.0 0.9 0.00 0.00 0.00 72 1010.0
20260505023029 69 277 0.9 1.7 0.00 0.00 0.00 71 1009.9
20260505022529 69 276 0.9 2.6 0.00 0.00 0.00 72 1009.8
20260505022029 69 313 0.9 2.6 0.00 0.00 0.00 72 1009.7
20260505021529 69 323 0.0 2.6 0.00 0.00 0.00 71 1009.6
20260505021030 69 269 0.9 1.7 0.00 0.00 0.00 70 1009.7
20260505020529 69 259 0.9 1.7 0.00 0.00 0.00 70 1009.6
20260505015029 69 329 0.9 1.7 0.00 0.00 0.00 69 1009.5
20260505014529 70 28 0.9 1.7 0.00 0.00 0.00 70 1009.5
20260505014029 70 31 0.0 1.7 0.00 0.00 0.00 69 1009.5
20260505013530 70 75 0.0 0.9 0.00 0.00 0.00 68 1009.4
20260505013029 70 304 0.0 0.0 0.00 0.00 0.00 68 1009.3
20260505012530 70 304 0.0 2.6 0.00 0.00 0.00 68 1009.3
20260505012030 70 277 0.9 1.7 0.00 0.00 0.00 68 1009.2
20260505011529 71 277 0.0 0.9 0.00 0.00 0.00 67 1009.3
20260505010529 71 277 0.0 1.7 0.00 0.00 0.00 66 1009.2
20260505010029 71 253 0.0 0.9 0.00 0.00 0.00 65 1009.3
20260505005529 71 253 0.9 1.7 0.00 0.00 0.00 66 1009.2
20260505005029 71 254 0.9 2.6 0.00 0.00 0.00 65 1009.3
20260505004529 72 330 0.9 2.6 0.00 0.00 0.00 64 1009.2
20260505004029 72 25 0.0 0.9 0.00 0.00 0.00 63 1009.4
20260505003529 72 14 0.0 1.7 0.00 0.00 0.00 63 1009.6
20260505003030 72 317 0.0 2.6 0.00 0.00 0.00 62 1009.6
20260505002529 72 317 0.0 1.7 0.00 0.00 0.00 62 1009.6
20260505002029 73 318 0.9 5.2 0.00 0.00 0.00 62 1009.6
20260505001529 73 341 0.0 1.7 0.00 0.00 0.00 62 1009.7
20260505001028 73 342 0.9 2.6 0.00 0.00 0.00 62 1009.7
20260505000529 73 218 0.0 2.6 0.00 0.00 0.00 61 1009.9
20260504235529 73 313 0.9 1.7 0.00 0.00 0.00 61 1009.9
20260504234529 74 313 0.9 2.6 0.00 0.00 0.00 61 1010.0
20260504233528 73 298 0.9 1.7 0.00 0.00 0.00 60 1010.2
20260504233029 74 310 0.9 1.7 0.00 0.00 0.00 60 1010.1
20260504232529 74 313 0.0 2.6 0.00 0.00 0.00 57 1010.2
20260504232028 74 314 0.9 1.7 0.00 0.00 0.00 58 1010.1
20260504231529 74 1 0.9 2.6 0.00 0.00 0.00 57 1010.2
20260504231029 74 285 0.9 2.6 0.00 0.00 0.00 60 1010.2
20260504230529 75 220 1.7 4.3 0.00 0.00 0.00 59 1010.4
20260504230029 75 291 0.9 2.6 0.00 0.00 0.00 58 1010.4
20260504225529 75 299 0.9 2.6 0.00 0.00 0.00 56 1010.4
20260504225028 75 119 0.9 2.6 0.00 0.00 0.00 58 1010.5
20260504224529 75 284 0.9 2.6 0.00 0.00 0.00 58 1010.6
20260504224029 75 272 0.9 2.6 0.00 0.00 0.00 58 1010.8
20260504223529 75 318 0.9 2.6 0.00 0.00 0.00 57 1010.9
20260504223029 75 303 0.9 2.6 0.00 0.00 0.00 57 1010.9
20260504222528 75 197 0.9 2.6 0.00 0.00 0.00 58 1010.9
20260504221529 75 294 0.9 2.6 0.00 0.00 0.00 56 1011.0
20260504221029 76 298 0.9 2.6 0.00 0.00 0.00 56 1010.9
20260504220529 76 274 1.7 4.3 0.00 0.00 0.00 53 1010.9
20260504220029 76 336 0.9 2.6 0.00 0.00 0.00 53 1011.0
20260504215529 77 174 1.7 6.1 0.00 0.00 0.00 56 1011.3
20260504215029 77 298 1.7 6.1 0.00 0.00 0.00 54 1011.3
20260504214530 77 319 0.9 2.6 0.00 0.00 0.00 54 1011.3
20260504214029 78 346 1.7 4.3 0.00 0.00 0.00 51 1011.2
20260504213529 77 340 0.9 6.1 0.00 0.00 0.00 51 1011.4
20260504213029 77 255 1.7 5.2 0.00 0.00 0.00 55 1011.5
20260504212529 77 276 0.9 2.6 0.00 0.00 0.00 52 1011.6
20260504212029 78 187 0.9 2.6 0.00 0.00 0.00 55 1011.7
20260504211529 78 3 1.7 2.6 0.00 0.00 0.00 51 1011.8
20260504211029 78 141 0.9 2.6 0.00 0.00 0.00 51 1011.8
20260504210028 78 183 1.7 2.6 0.00 0.00 0.00 51 1011.8
20260504205529 79 303 0.9 2.6 0.00 0.00 0.00 50 1012.0
20260504204529 79 221 1.7 2.6 0.00 0.00 0.00 50 1012.3
20260504204029 79 317 0.9 2.6 0.00 0.00 0.00 52 1012.4
20260504203529 79 198 0.9 2.6 0.00 0.00 0.00 51 1012.4
20260504203029 79 246 1.7 4.3 0.00 0.00 0.00 51 1012.6
20260504202529 79 246 1.7 5.2 0.00 0.00 0.00 47 1012.8
20260504202029 79 221 1.7 6.1 0.00 0.00 0.00 49 1012.8
20260504201529 79 290 0.9 2.6 0.00 0.00 0.00 47 1012.9
20260504201029 79 294 1.7 2.6 0.00 0.00 0.00 47 1013.1
20260504200529 79 238 1.7 2.6 0.00 0.00 0.00 52 1013.2
20260504200029 79 68 0.9 2.6 0.00 0.00 0.00 53 1013.2
20260504195529 79 24 0.9 2.6 0.00 0.00 0.00 49 1013.4
20260504195029 79 278 0.9 5.2 0.00 0.00 0.00 50 1013.4
20260504194530 79 76 0.9 2.6 0.00 0.00 0.00 49 1013.5
20260504194030 78 321 0.9 4.3 0.00 0.00 0.00 47 1013.7
20260504193529 78 289 0.9 2.6 0.00 0.00 0.00 48 1013.7
20260504193029 79 284 1.7 4.3 0.00 0.00 0.00 54 1013.7
20260504192528 79 56 0.9 2.6 0.00 0.00 0.00 47 1013.8
20260504192029 79 163 1.7 4.3 0.00 0.00 0.00 49 1013.8
20260504191529 78 130 0.9 4.3 0.00 0.00 0.00 50 1014.1
20260504191029 78 4 0.9 2.6 0.00 0.00 0.00 50 1014.1
20260504190530 78 325 0.9 2.6 0.00 0.00 0.00 48 1014.2
20260504190029 78 154 0.9 2.6 0.00 0.00 0.00 50 1014.4
20260504185029 78 343 1.7 2.6 0.00 0.00 0.00 49 1014.4
20260504184528 78 307 0.0 2.6 0.00 0.00 0.00 52 1014.5
20260504184029 78 25 0.9 2.6 0.00 0.00 0.00 50 1014.5
20260504183529 78 280 0.9 2.6 0.00 0.00 0.00 52 1014.7
20260504183028 78 75 0.9 2.6 0.00 0.00 0.00 52 1014.6
20260504182529 77 249 1.7 5.2 0.00 0.00 0.00 50 1014.7
20260504182029 78 103 1.7 2.6 0.00 0.00 0.00 51 1014.7
20260504181528 78 247 1.7 5.2 0.00 0.00 0.00 52 1015.0
20260504181029 77 206 0.9 2.6 0.00 0.00 0.00 53 1015.2
20260504180529 77 326 0.9 2.6 0.00 0.00 0.00 51 1015.2
20260504180029 77 259 1.7 2.6 0.00 0.00 0.00 50 1015.3
20260504175029 77 335 0.9 2.6 0.00 0.00 0.00 51 1015.5
20260504174528 77 313 1.7 4.3 0.00 0.00 0.00 52 1015.6
20260504174029 77 280 0.9 2.6 0.00 0.00 0.00 53 1015.5
20260504173029 76 42 1.7 4.3 0.00 0.00 0.00 51 1015.5
20260504172529 76 231 1.7 5.2 0.00 0.00 0.00 52 1015.6
20260504172029 76 336 2.6 5.2 0.00 0.00 0.00 52 1015.5
20260504171528 76 269 1.7 2.6 0.00 0.00 0.00 54 1015.4
20260504170529 76 155 2.6 6.1 0.00 0.00 0.00 53 1015.5
20260504151029 69 348 0.9 2.6 0.00 0.00 0.00 65 1016.3
20260504150528 69 334 1.7 2.6 0.00 0.00 0.00 64 1016.4
20260504141029 66 129 0.0 2.6 0.00 0.00 0.00 72 1016.5
20260504140529 66 189 0.0 0.0 0.00 0.00 0.00 72 1016.5
20260504110528 55 204 0.0 0.0 0.00 0.00 0.00 81 1015.9
20260504100529 56 204 0.0 0.0 0.00 0.00 0.00 80 1016.7